Location: Curtis Creek Cemetery
(34.7684°N, 89.1067°W)
Time: 04:55:30
(UTC+00:00)

Daily predictions for brighter satellites

Satellite Brightness Start Highest point End
(mag) Time Altitude Azimuth Time Altitude Azimuth Time Altitude Azimuth
Ariane Rocket 3.0 01:22:45 10° SSE 01:27:46 69° ENE 01:32:49 10° N
STARLINK-1177 4.1 01:26:08 10° NW 01:30:13 59° SW 01:34:16 10° SSE
Cosmos 2251 Rocket 3.5 01:26:24 10° NNW 01:31:38 70° ENE 01:36:50 10° SSE
STARLINK-1198 4.0 01:29:29 10° SW 01:33:35 70° NW 01:37:44 10° NE
Meteor 1-11 Rocket 3.9 01:28:02 10° N 01:33:40 80° W 01:39:11 10° S
STARLINK-1167 4.2 01:31:07 10° NW 01:35:09 52° SW 01:39:10 10° SSE
SEDSat Delta rocket 4.1 01:30:11 10° W 01:36:55 67° S 01:43:31 10° E
Cosmos 1844 3.9 01:32:36 10° SSW 01:38:13 80° WNW 01:43:56 10° NNE
STARLINK-1199 4.2 01:34:28 10° SW 01:38:33 63° NW 01:42:39 10° NE
STARLINK-1168 4.4 01:36:10 10° WNW 01:40:09 46° SW 01:44:06 10° SSE
STARLINK-1157 3.5 01:37:50 10° NW 01:41:03 50° NE 01:44:03 11° ESE
ASTEX 1 3.7 01:37:24 10° SSE 01:42:05 49° E 01:46:49 10° N
Cosmos 1464 Rocket 4.1 01:36:33 10° N 01:42:54 69° E 01:49:15 10° SSE
STARLINK-1210 4.4 01:39:29 10° WSW 01:43:32 56° NW 01:47:37 10° NE
DMSP B5D2-2 4.2 01:38:51 10° NNE 01:44:03 56° E 01:49:11 10° S
Cosmos 2056 Rocket 3.9 01:40:07 10° SSE 01:44:48 38° E 01:49:30 10° NE
Cosmos 1743 3.6 01:45:46 10° NNE 01:49:11 31° E 01:52:08 13° SE
STARLINK-1192 4.4 01:47:27 10° S 01:51:01 28° SE 01:54:35 10° ENE
Centaur AC-125 3.8 01:48:09 10° WSW 01:51:19 37° SSE 02:01:09 10° ESE
Cosmos 2242 Rocket 3.5 01:47:22 10° S 01:51:45 79° E 01:56:09 10° N
FREGAT/IRIS 2.9 01:49:41 10° S 01:52:19 54° W 01:54:56 10° NNW
MONITOR-E 3.6 01:49:47 10° S 01:52:20 84° W 01:54:54 10° NNW
STARLINK-1141 4.4 01:48:28 10° NNW 01:52:24 40° NE 01:55:46 13° ESE
GPS 2-04 Rocket1 3.4 01:49:57 10° SW 01:53:00 28° SSE 01:55:48 12° E
STARLINK-1244 4.3 01:52:16 10° SSW 01:55:57 32° SE 01:59:39 10° ENE
STARLINK-1140 4.3 01:53:25 10° NNW 01:57:24 45° NE 02:00:34 15° ESE
MOS 1 Rocket 3.1 01:53:56 10° N 01:58:21 84° W 02:02:36 10° SSW
H-2A R/B 2.5 01:58:40 10° WSW 02:00:48 25° S 02:03:58 15° SE
STARLINK-1138 4.1 01:57:06 10° SSW 02:00:53 35° SE 02:04:41 10° ENE
STARLINK-1156 4.1 01:58:21 10° NW 02:02:23 49° NE 02:05:21 17° ESE
DNEPR-1 R/B 4.3 01:59:06 10° NW 02:04:58 69° WSW 02:09:20 12° SSE
STARLINK-1143 4.0 02:01:58 10° SSW 02:05:50 40° SE 02:09:43 10° ENE
Cosmos 2346 Rocket 4.5 02:00:07 10° S 02:06:11 89° W 02:12:20 10° N
STARLINK-1148 4.0 02:03:18 10° NW 02:07:22 55° NE 02:10:07 19° ESE
MetOp-A 4.1 02:02:48 10° SSE 02:08:09 79° ENE 02:13:31 10° N
ERBS 2.1 02:05:36 10° SSW 02:08:53 73° SE 02:12:10 10° NE
STARLINK-1203 3.9 02:06:07 10° SSW 02:10:07 45° SE 02:14:08 10° ENE
STARLINK-1241 3.8 02:06:52 10° SSW 02:10:48 45° SE 02:14:46 10° ENE
Okean 1-7 2.9 02:07:11 10° S 02:11:27 75° E 02:15:43 10° N
STARLINK-1158 3.8 02:08:15 10° NW 02:12:21 61° NE 02:14:55 22° ESE
STARLINK-1239 3.7 02:11:45 10° SSW 02:15:45 50° SE 02:19:46 10° NE
Tsikada Rocket 3.9 02:09:47 10° S 02:16:00 81° E 02:22:11 10° N
STARLINK-1162 3.7 02:13:13 10° NW 02:17:21 68° NE 02:19:42 24° ESE
Cosmos 2082 Rocket 4.3 02:16:07 10° NNE 02:18:38 13° NE 02:21:07 10° E
Cosmos 1420 Rocket 4.4 02:15:14 10° S 02:20:02 41° ESE 02:24:54 10° NNE
STARLINK-1240 3.6 02:16:41 10° SSW 02:20:44 57° SE 02:24:47 10° NE
ARGOS 4.4 02:16:17 10° SSW 02:21:14 38° W 02:26:14 10° NNW
CZ-2C R/B 4.4 02:17:04 10° N 02:21:26 54° WNW 02:25:51 10° SSW
Cosmos 407 Rocket 3.8 02:16:25 10° N 02:21:41 55° ENE 02:24:56 23° SE
Cosmos 1833 Rocket 4.2 02:18:33 10° N 02:22:53 22° ENE 02:25:34 16° E
CZ-2C R/B 3.2 02:19:21 10° N 02:24:55 64° WNW 02:30:27 10° SSW
STARLINK-1216 3.5 02:21:36 10° SSW 02:25:40 64° SE 02:29:46 10° NE
Cosmos 1975 3.1 02:23:13 10° N 02:27:09 48° E 02:28:48 29° SE
STARLINK-1159 3.5 02:23:08 10° NW 02:27:17 85° NE 02:29:15 30° SE
Aureole 1 Rocket 3.8 02:23:05 10° N 02:27:31 49° ENE 02:30:36 25° SE
Okean 1 4.2 02:24:29 10° SSW 02:28:25 51° W 02:32:21 10° N
Meteor 1-4 Rocket 2.3 02:27:29 21° S 02:29:37 74° E 02:33:03 10° NNE
STARLINK-1237 3.5 02:26:32 10° SW 02:30:38 72° SE 02:34:46 10° NE
Cosmos 2221 Rocket 4.1 02:29:37 27° SE 02:31:26 40° E 02:35:39 10° NNE
STARLINK-1171 3.5 02:28:09 10° NW 02:32:17 86° SW 02:34:04 33° SE
USA 245 4.4 02:33:13 24° E 02:33:26 24° ENE 02:36:05 10° NNE
Cosmos 1515 3.8 02:31:08 13° S 02:34:31 77° W 02:38:20 10° N
Meteor 2-9 Rocket 4.1 02:30:03 10° N 02:35:22 61° E 02:38:11 27° SSE
STARLINK-1202 3.5 02:31:30 10° SW 02:35:38 81° SE 02:39:46 10° NE
SPOT 3 Rocket 3.9 02:32:31 13° S 02:37:01 61° WSW 02:42:07 10° NNW
STARLINK-1155 3.6 02:33:06 10° NW 02:37:15 77° SW 02:38:49 36° SSE
STARLINK-1087 3.5 02:36:15 10° NW 02:37:29 32° NW 02:37:29 32° NW
EXPRESS MD2 2.6 02:37:39 10° SW 02:40:08 62° SE 02:44:23 10° NE
ATLAS 3B CENTAUR R/B 3.7 02:27:34 10° SW 02:40:25 38° S 02:43:50 26° SE
Resurs 01 Rocket 1.6 02:38:50 25° S 02:41:23 84° WSW 02:45:52 10° NNW
STARLINK-1166 3.7 02:38:05 10° NW 02:42:13 69° SW 02:43:36 39° SSE
SPOT 1/Viking Rocket 4.4 02:42:35 27° ESE 02:44:15 33° ENE 02:48:49 10° N
STARLINK-1246 3.6 02:41:26 10° SW 02:45:34 82° NW 02:49:43 10° NE
Cosmos 1190 Rocket 3.9 02:40:41 10° NNW 02:45:55 77° ENE 02:48:19 33° SSE
Cosmos 2278 Rocket 2.2 02:41:07 10° SSW 02:46:46 83° WNW 02:52:29 10° NNE
Cosmos 614 Rocket 4.2 02:42:00 10° NNW 02:47:01 63° WSW 02:50:03 24° S
STARLINK-1165 3.8 02:43:05 10° NW 02:47:10 61° SW 02:48:23 41° SSE
Cosmos 44 Rocket 4.4 02:43:09 10° NW 02:47:44 39° WSW 02:50:42 20° S
Cosmos 1782 Rocket 3.7 02:43:29 10° N 02:47:58 77° W 02:50:16 28° S
Cosmos 1140 Rocket 3.4 02:44:06 10° NNW 02:49:19 75° ENE 02:51:30 36° SSE
Sich 1 Rocket 3.6 02:45:11 10° N 02:49:46 70° E 02:51:20 40° SSE
CREW DRAGON DEMO-1 DEB 2.9 02:47:05 10° NW 02:50:10 65° NE 02:50:14 65° NE
STARLINK-1224 3.8 02:46:26 10° SW 02:50:33 73° NW 02:54:41 10° NE
STARLINK-1169 4.0 02:48:05 10° NW 02:52:08 54° SW 02:53:10 41° S
STARLINK-1225 4.0 02:51:25 10° SW 02:55:31 66° NW 02:59:38 10° NE
STARLINK-1178 4.1 02:53:06 10° WNW 02:57:06 48° SW 02:57:57 41° SSW
BREEZE M DEB (TANK) 4.3 02:56:00 10° W 02:57:04 15° WSW 02:57:04 15° WSW
STARLINK-1230 4.2 02:56:26 10° WSW 03:00:30 59° NW 03:04:36 10° NE
Cosmos 1544 3.4 02:56:59 10° NNW 03:00:32 59° W 03:01:22 44° SSW
Cosmos 2142 Rocket 4.5 02:54:58 10° N 03:01:04 64° E 03:03:28 37° SSE
ERS-1 Rocket 3.8 03:00:12 31° E 03:01:07 34° ENE 03:05:36 10° N
Cosmos 909 Rocket 4.2 02:54:08 10° NNW 03:01:35 84° WSW 03:04:36 34° SSE
Terra 3.4 03:01:34 20° ENE 03:01:57 20° ENE 03:05:21 10° NNE
STARLINK-1120 4.3 02:58:08 10° WNW 03:02:03 43° SW 03:02:44 39° SSW
SAR-Lupe-2 3.6 02:59:22 10° N 03:02:57 78° WNW 03:03:41 54° SSW
Okean 2 Rocket 3.1 02:58:48 10° N 03:03:09 57° E 03:03:40 53° ESE
STARLINK-1243 4.4 03:01:27 10° WSW 03:05:29 53° NW 03:09:33 10° NE
STARLINK-1131 4.4 03:03:09 10° WNW 03:07:00 38° SW 03:07:30 36° SSW
Hubble Space Telescope 2.2 03:04:16 10° WSW 03:06:44 25° SW 03:06:44 25° SW
STARLINK-1069 4.4 03:05:27 10° NNW 03:09:21 39° NE 03:09:58 37° ENE
Cosmos 1954 Rocket 3.9 03:06:42 10° NNW 03:11:59 76° ENE 03:13:16 52° SE
Spot 2 Rocket 3.4 03:11:18 47° SSE 03:12:47 88° WSW 03:17:50 10° NNW
STARLINK-1085 4.3 03:10:24 10° NNW 03:14:22 43° NE 03:14:46 42° ENE
Nadezhda 4 Rocket 4.4 03:14:14 40° ESE 03:15:08 42° E 03:20:51 10° NNE
Cosmos 371 Rocket 3.3 03:12:56 31° SSW 03:15:14 80° WNW 03:20:07 10° NNE
Lacrosse 5 3.5 03:11:59 10° NNW 03:16:07 25° NE 03:17:49 21° ENE
Cosmos 2151 Rocket 3.8 03:12:18 10° N 03:16:45 55° E 03:16:49 55° E
STARLINK-1086 4.1 03:15:20 10° NW 03:19:21 48° NE 03:19:32 47° NE
Intercosmos 24 3.8 03:15:51 10° N 03:18:59 64° NNE 03:18:59 64° NNE
SEDSat Delta rocket 4.2 03:16:54 10° W 03:23:22 48° SSW 03:24:16 45° S
IGS 5A 3.4 03:23:40 73° SW 03:23:53 76° W 03:28:02 10° NNW
STARLINK-1095 4.0 03:20:18 10° NW 03:24:20 53° NE 03:24:20 53° NE
Cosmos 676 Rocket 4.0 03:21:07 10° NNW 03:26:22 75° WSW 03:27:27 56° S
Cosmos 2279 Rocket 3.9 03:22:58 10° N 03:29:13 89° W 03:31:05 49° S
STARLINK-1077 4.0 03:25:14 10° NW 03:29:07 58° NNE 03:29:07 58° NNE
CARTOSAT-1 3.8 03:30:01 58° NE 03:30:01 58° NE 03:33:57 10° N
COSMOS 2406 3.6 03:25:08 10° NNW 03:30:47 58° WSW 03:32:22 43° SSW
GPS 2-04 Rocket1 4.3 03:28:36 10° WSW 03:30:06 23° WSW 03:30:06 23° WSW
Meteor 1-23 Rocket 4.2 03:32:25 61° SE 03:33:08 68° E 03:38:46 10° NNE
Meteor 1-12 Rocket 4.3 03:28:06 10° NNW 03:33:45 76° W 03:35:09 52° SSW
STARLINK-1075 4.0 03:30:12 10° NW 03:33:54 60° N 03:33:54 60° N
H-2A ROCKET BODY 4.2 03:31:05 10° SSW 03:37:27 43° SE 04:07:36 10° E
STARLINK-1093 4.0 03:35:10 10° NW 03:38:41 60° NNW 03:38:41 60° NNW
Cosmos 1461 3.7 03:40:57 45° NNE 03:40:57 45° NNE 03:43:58 10° NNE
STARLINK-1074 4.2 03:40:07 10° NW 03:43:27 56° NNW 03:43:27 56° NNW
Cosmos 2297 3.5 03:44:50 70° S 03:45:30 84° ESE 03:51:13 10° NNE
SPOT 5 2.8 03:46:55 84° ESE 03:47:02 85° ENE 03:52:19 10° N
Cosmos 1092 Rocket 4.1 03:55:34 56° E 03:55:34 56° E 04:01:27 10° NNE
Cosmos 304 Rocket 4.0 03:58:30 63° WNW 03:58:30 63° WNW 04:03:12 10° N
Cosmos 2082 Rocket 2.1 03:57:41 10° NNW 04:03:25 84° WSW 04:03:27 84° WSW
Cosmos 1833 Rocket 3.3 04:01:39 10° NW 04:06:58 44° WSW 04:07:16 44° WSW
Cosmos 2369 Rocket 3.5 04:13:14 29° ENE 04:13:14 29° ENE 04:16:22 10° NE
Cosmos 1943 Rocket 2.8 04:14:48 44° NE 04:14:48 44° NE 04:18:43 10° NNE
ISS -0.8 04:12:20 10° NNW 04:13:28 17° N 04:13:28 17° N
Cosmos 2195 Rocket 4.4 04:15:42 72° E 04:15:42 72° E 04:21:51 10° N
Terra 3.2 04:40:27 32° WNW 04:40:27 32° WNW 04:43:47 10° NNW
SeaSat 1 3.2 04:36:22 10° NNE 04:40:31 50° NNW 04:40:31 50° NNW
Cosmos 2026 Rocket 4.0 04:46:18 74° NW 04:46:18 74° NW 04:52:20 10° N
CENTAUR R/B 4.4 04:50:01 10° NNW 04:57:17 33° NE 05:01:10 24° E
Lacrosse 5 3.5 04:54:24 10° NW 04:57:00 29° WNW 04:57:00 29° WNW
ATLAS 2AS CENTAUR R/B 2.9 05:17:30 81° E 05:17:30 81° E 05:25:20 10° NNE
COSMOS 2455 3.9 05:28:14 36° NE 05:28:14 36° NE 05:31:51 10° NE
NOSS 3-2 (A) 4.0 05:22:25 10° NNW 05:30:18 79° ENE 05:30:50 76° E
USA 238 DEB 3.8 05:31:34 10° NNW 05:38:30 81° NNW 05:38:30 81° NNW
USA 238 3.8 05:31:40 10° NNW 05:38:37 81° N 05:38:37 81° N
ATLAS CENTAUR R/B 4.0 05:50:00 18° NNE 05:50:00 18° NNE 05:51:04 10° NNE
Cosmos 2369 Rocket 3.9 05:54:58 25° WNW 05:55:12 25° WNW 05:59:50 10° N
Cosmos 1943 Rocket 4.3 05:56:16 16° WNW 05:57:25 17° NW 06:00:55 10° NNW
Cosmos 2315 Rocket 4.4 05:57:07 10° N 06:02:13 59° NNE 06:02:13 59° NNE
USA 215 3.5 06:12:35 62° WNW 06:12:35 62° WNW 06:17:55 10° NW
Meteor 2-5 Rocket 4.4 06:31:42 49° N 06:31:42 49° N 06:35:45 10° N
NOSS 3-2 (C) 4.2 06:28:55 10° NW 06:36:09 63° W 06:36:09 63° W
ATLAS 3B R/B 2.9 06:39:48 10° NNW 06:46:37 65° ENE 06:47:29 60° E
CENTAUR R/B 3.2 06:40:14 10° NW 06:48:18 64° WSW 06:48:18 64° WSW
Cosmos 2297 Rocket 3.9 07:04:09 10° N 07:08:59 28° ENE 07:11:45 19° ESE
SL-16 R/B 3.2 07:13:43 39° ESE 07:15:15 47° ENE 07:21:08 10° N
Cosmos 1745 Rocket 3.9 07:17:18 74° NW 07:17:18 74° NW 07:23:04 10° N
SJ 16-02 3.3 07:13:44 10° NNE 07:17:16 23° ENE 07:17:48 22° ENE
Timation 2 Rocket 3.9 07:11:09 10° NNW 07:16:55 77° NNW 07:16:55 77° NNW
ADEOS II 3.8 07:19:28 10° NE 07:23:31 22° E 07:24:11 22° ESE
SL-08 ROCKET BODY 4.5 07:26:41 63° NW 07:26:41 63° NW 07:31:59 10° N
CZ-2D R/B 2.2 07:27:48 10° NNE 07:32:35 72° NE 07:32:35 72° NE
Resurs 1-4 Rocket 2.1 07:29:51 10° NNE 07:34:46 77° NNE 07:34:46 77° NNE
Cosmos 1697 Rocket 3.0 07:38:46 56° ESE 07:38:52 56° ESE 07:44:24 10° NNE
GEOS 3 Rocket 3.7 07:42:45 65° NW 07:42:45 65° NW 07:47:14 10° NW
Cosmos 2227 Rocket 2.9 07:39:40 10° N 07:45:11 49° ENE 07:47:50 28° SE
Cosmos 540 Rocket 4.3 07:46:55 39° ESE 07:47:16 39° ESE 07:52:01 10° NNE
CZ-4B R/B 3.4 07:48:00 10° NNE 07:53:14 88° WNW 07:53:15 88° W
Meteor 2-1 Rocket 4.1 07:48:09 10° NNW 07:53:30 72° W 07:53:30 72° W
Cosmos 1656 3.9 07:54:05 55° WNW 07:54:13 55° WNW 07:59:45 10° NNE
NPP 3.6 07:50:29 10° N 07:55:52 72° WNW 07:55:57 72° W
FALCON 9 R/B 3.7 07:52:06 28° W 07:56:33 86° S 08:23:36 10° ESE
Cosmos 1812 Rocket 4.5 07:53:43 10° NNW 07:56:49 41° NW 07:56:49 41° NW
Meteor 2-10 Rocket 3.3 07:55:56 10° N 08:01:10 90° WSW 08:01:18 85° S
Cosmos 990 Rocket 4.3 07:56:36 10° N 08:01:50 64° ENE 08:03:22 43° SE
Alouette 2 Rocket 3.7 07:57:08 10° N 08:02:18 72° ENE 08:02:18 72° ENE
Cosmos 1825 Rocket 3.8 08:03:30 61° N 08:03:30 61° N 08:07:07 10° N
IRS P6 4.5 07:59:14 10° N 08:04:30 77° WNW 08:04:52 73° WSW
Cosmos 1709 Rocket 4.0 08:06:14 53° WSW 08:06:47 55° W 08:12:48 10° N
Cosmos 841 Rocket 3.5 08:07:29 64° SSE 08:08:06 72° ESE 08:13:19 10° NNE
CZ-4C R/B 2.0 08:11:04 59° WNW 08:11:23 61° NW 08:16:54 10° NNE
Cosmos-2242 3.0 08:07:57 10° N 08:12:04 75° ENE 08:12:04 75° ENE
CBERS-1 3.8 08:08:42 10° NNE 08:13:49 86° WNW 08:14:26 70° SSW
Cosmos 2369 3.7 08:18:04 58° WSW 08:18:58 68° WNW 08:24:37 10° NNE
Cosmos 2360 4.1 08:23:05 56° SSW 08:24:21 83° WNW 08:30:04 10° NNE
Cosmos 1763 Rocket 4.1 08:24:30 38° WNW 08:24:51 38° WNW 08:29:36 10° N
Lacrosse 4 Rocket 3.3 08:24:42 10° N 08:28:31 30° ENE 08:32:13 10° ESE
USA 234 4.3 08:22:53 10° ENE 08:28:41 33° SE 08:31:40 23° S
GP-B 3.5 08:25:02 10° N 08:29:04 47° WNW 08:29:04 47° WNW
IRS-1D 3.7 08:24:52 10° N 08:30:05 60° WNW 08:31:05 50° WSW
Cosmos 1455 3.7 08:28:30 10° NNW 08:30:25 24° NW 08:30:25 24° NW
Cosmos 1980 Rocket 2.1 08:30:34 48° SSW 08:32:12 86° ESE 08:37:52 10° NNE
IRS-1C 4.0 08:27:20 10° NNE 08:32:42 89° ESE 08:34:25 45° SSW
ATLAS 3B R/B 4.2 08:31:49 10° WNW 08:34:40 18° W 08:34:40 18° W
STARLINK-1211 4.5 08:33:08 10° NW 08:37:10 50° NE 08:41:12 10° ESE
STARLINK-28 3.7 08:39:50 46° E 08:39:50 46° E 08:42:27 10° NE
Cosmos 2219 3.9 08:36:07 10° NW 08:40:51 34° W 08:40:51 34° W
STARLINK-1245 4.3 08:38:05 10° NW 08:42:10 56° NE 08:46:13 10° ESE
H-2A R/B 3.8 08:38:37 10° SE 08:42:25 32° ENE 08:46:20 10° N
Cosmos 489 Rocket 4.4 08:39:49 37° SSW 08:42:28 89° W 08:48:44 10° NNE
STARLINK-41 3.9 08:44:31 38° ESE 08:44:31 38° ESE 08:47:09 10° ENE
STARLINK-1291 4.4 08:46:26 28° SE 08:46:26 28° SE 08:49:18 10° ENE
STARLINK-1233 4.0 08:43:02 10° NW 08:47:08 62° NE 08:51:14 10° SE
STARLINK-1264 4.3 08:48:47 30° SE 08:48:52 30° SE 08:51:49 10° ENE
Cosmos 2074 Rocket 4.0 08:46:23 34° SSW 08:49:12 68° W 08:55:29 10° N
STARLINK-1267 4.2 08:50:30 31° SE 08:50:38 31° SE 08:53:37 10° ENE
STARLINK-1204 3.9 08:48:00 10° NW 08:52:08 70° NE 08:56:15 10° SE
STARLINK-1272 4.1 08:52:10 32° SE 08:52:23 33° SE 08:55:24 10° ENE
Cosmos 2297 Rocket 2.8 08:47:58 10° NW 08:53:00 34° WSW 08:53:28 33° WSW
STARLINK-1207 4.0 08:53:52 34° SE 08:54:08 34° SE 08:57:12 10° ENE
SJ 16-02 2.7 08:52:06 10° NW 08:54:43 23° WNW 08:54:43 23° WNW
ARIANE 5 R/B 2.4 08:50:53 10° N 08:55:55 74° WNW 08:58:05 34° SSW
STARLINK-1266 3.9 08:55:37 35° SE 08:55:57 36° SE 08:59:03 10° ENE
STARLINK-33 2.8 08:56:40 71° SSE 08:56:49 73° SE 09:00:01 10° NE
STARLINK-1238 3.7 08:52:59 10° NW 08:57:08 77° NE 09:01:15 10° SE
STARLINK-1284 3.9 08:57:24 37° SSE 08:57:47 38° SE 09:00:55 10° ENE
Cosmos 2082 3.6 08:53:19 10° NNW 08:58:55 66° WSW 09:04:17 11° S
SL-16 R/B 3.7 08:58:48 23° W 08:59:01 23° W 09:03:44 10° NW
STARLINK-1258 3.8 08:59:06 38° SSE 08:59:33 40° SE 09:02:43 10° ENE
Cosmos 2278 4.2 08:57:31 31° WSW 08:59:38 44° WNW 09:05:02 10° N
STARLINK-1292 3.7 09:00:04 38° SSE 09:00:30 41° SE 09:03:36 10° ENE
Cosmos 1898 Rocket 4.2 08:57:20 10° NW 09:02:05 34° W 09:03:02 31° WSW
STARLINK-1201 3.5 08:57:57 10° NW 09:02:06 86° NE 09:06:15 10° SE
ADEOS II 2.8 08:58:27 10° N 09:03:15 37° WNW 09:05:07 28° WSW
STARLINK-1274 3.6 09:02:40 40° SSE 09:03:17 45° SE 09:06:29 10° ENE
Cosmos 2184 Rocket 4.2 09:00:26 30° SW 09:03:21 53° W 09:09:23 10° N
STARLINK-1289 3.6 09:03:30 40° SSE 09:04:05 46° SE 09:07:15 10° ENE
Cosmos 2322 Rocket 3.5 08:59:26 10° SSE 09:04:28 34° ESE 09:09:29 10° NE
Cosmos 2263 Rocket 4.2 09:00:12 10° N 09:05:01 29° ENE 09:09:47 10° ESE
STARLINK-66 2.8 09:04:58 62° WSW 09:05:27 84° NW 09:08:39 10° NE
Cosmos 1869 4.2 09:01:58 10° N 09:05:43 46° E 09:09:26 10° SSE
STARLINK-80 3.6 09:04:49 40° SSW 09:05:56 62° SE 09:09:41 10° NE
STARLINK-1303 3.5 09:05:29 41° S 09:06:08 48° SE 09:09:19 10° NE
Spot 4 Rocket 3.9 09:01:29 10° N 09:06:39 82° WNW 09:09:44 25° SSW
CSL-04 DEB 4.4 09:04:09 23° S 09:06:40 72° WSW 09:10:59 10° NNW
STARLINK-1206 3.5 09:02:55 10° NW 09:07:04 85° SW 09:11:12 10° SE
Cosmos 1400 Rocket 3.0 09:04:39 10° NNW 09:08:40 51° W 09:10:09 33° SSW
Cosmos 1937 Rocket 3.9 09:03:49 10° NNW 09:08:45 42° WSW 09:11:12 26° SSW
STARLINK-1312 3.4 09:08:02 40° S 09:08:51 53° SE 09:12:08 10° NE
Cosmos 1408 4.5 09:07:36 10° SSE 09:10:48 28° E 09:14:02 10° NNE
In-Cosmos 22 Rocket 4.5 09:05:55 14° S 09:10:54 70° E 09:16:31 10° NNE
STARLINK-1205 3.5 09:07:54 10° NW 09:12:03 76° SW 09:16:10 10° SE
Cosmos 2298 Rocket 4.3 09:06:53 10° NNW 09:12:10 68° ENE 09:17:26 10° SSE
CZ-2D R/B 4.2 09:11:00 10° NW 09:12:21 11° WNW 09:13:43 10° WNW
Cosmos 1842 Rocket 3.5 09:08:27 10° N 09:12:58 88° WSW 09:17:01 12° S
Resurs 1-4 Rocket 4.3 09:13:19 10° NW 09:14:12 10° WNW 09:15:06 10° WNW
STARLINK-1283 3.3 09:13:00 37° SW 09:14:23 83° SE 09:18:09 10° NE
STARLINK-75 2.9 09:15:39 43° WSW 09:16:34 73° NW 09:19:47 10° NE
STARLINK-1218 3.5 09:12:53 10° NW 09:17:00 68° SW 09:21:06 10° SE
Landsat 5 3.9 09:16:57 10° SSE 09:21:23 70° ENE 09:25:54 10° N
STARLINK-1254 3.6 09:17:53 10° NW 09:21:58 60° SW 09:26:02 10° SSE
SL-08 R/B 3.7 09:20:12 22° SSW 09:22:44 40° W 09:27:07 10° NNW
Cosmos 1697 Rocket 4.4 09:20:30 14° W 09:23:11 18° WNW 09:27:02 10° NNW
CZ-2C R/B 2.6 09:19:42 10° N 09:23:26 80° WNW 09:25:49 21° SSW
IRIDIUM 104 4.3 09:19:57 18° SSW 09:23:51 65° W 09:29:03 10° N
STARLINK-58 3.3 09:23:21 29° SSW 09:24:39 53° SE 09:27:45 10° NE
Cosmos 1076 Rocket 3.5 09:21:20 16° S 09:24:43 89° ESE 09:29:07 10° N
IDEFIX/ARIANE 42P 2.5 09:19:28 10° N 09:24:45 80° WNW 09:29:09 15° SSW
STARLINK-22 2.9 09:25:02 33° SW 09:26:19 78° NW 09:29:31 10° NE
STARLINK-1231 3.7 09:22:53 10° NW 09:26:56 53° SW 09:30:57 10° SSE
Cosmos 2227 Rocket 3.5 09:24:55 10° WNW 09:28:44 19° W 09:29:33 18° WSW
Cosmos 1315 Rocket 2.7 09:27:44 10° N 09:31:40 85° W 09:35:35 10° S
CZ-2D R/B 4.1 09:27:58 10° N 09:31:50 39° WNW 09:34:14 20° SW
ERS-2 2.6 09:29:51 21° SSW 09:31:53 39° W 09:35:20 10° NNW
STARLINK-1232 3.8 09:27:55 10° WNW 09:31:54 47° SW 09:35:52 10° SSE
Cosmos 1125 Rocket 4.2 09:26:52 10° N 09:31:58 55° ENE 09:37:03 10° SSE
SL-16 R/B 2.3 09:27:45 13° SSW 09:32:47 79° ESE 09:38:27 10° NNE
NOSS 2-1 (E) 3.0 09:31:38 20° SSW 09:33:51 73° ESE 09:37:15 10° NE
COBE Rocket 4.3 09:29:53 14° SSW 09:33:54 44° W 09:38:42 10° NNW
CZ-4C R/B 3.0 09:31:50 10° S 09:35:21 64° W 09:38:57 10° NNW
SL-8 Rocket 4.4 09:29:09 10° S 09:35:23 67° E 09:41:38 10° NNE
Cosmos 2154 Rocket 4.4 09:31:09 17° SSW 09:35:48 46° W 09:41:48 10° N
Shenzhou-11 Module 3.0 09:35:27 20° S 09:36:18 25° SE 09:38:24 10° E
STARLINK-1208 3.9 09:32:56 10° WNW 09:36:52 42° SW 09:40:46 10° SSE
SL-24 DEB 4.3 09:36:24 10° N 09:40:56 59° W 09:45:25 10° SSW
Cosmos 1825 3.1 09:37:30 10° SSE 09:41:07 47° E 09:44:44 10° NNE
STARLINK-1271 4.1 09:37:58 10° WNW 09:41:48 37° SW 09:45:37 10° SSE
STARLINK-1154 4.2 09:43:00 10° WNW 09:46:45 33° SW 09:50:28 10° SSE
ATLAS CENTAUR R/B 3.9 09:42:33 10° WNW 09:47:10 37° SW 09:57:57 10° SSE
STARLINK-42 4.3 09:46:04 15° W 09:48:13 29° NW 09:51:05 10° NNE
STARLINK-48 3.5 09:47:45 15° SW 09:50:52 76° SE 09:54:45 10° NE
STARLINK-1311 3.8 09:49:21 15° W 09:51:21 34° NW 09:54:07 10° NNE
STARLINK-1316 3.6 09:49:31 16° WSW 09:51:41 41° NW 09:54:40 10° NNE
STARLINK-1197 4.4 09:48:03 10° WNW 09:51:41 30° SW 09:55:18 10° S
Cosmos 2221 3.2 09:47:47 10° NNW 09:51:46 36° W 09:55:45 10° SSW
Cosmos 372 Rocket 4.5 09:47:03 10° NW 09:51:47 38° WSW 09:56:30 10° SSW
STARLINK-1301 3.9 09:49:46 15° WSW 09:52:18 41° NW 09:55:35 10° NNE
STARLINK-1257 3.7 09:50:23 16° WSW 09:52:36 40° NW 09:55:34 10° NNE
STARLINK-1256 3.7 09:51:15 15° WSW 09:53:29 39° NW 09:56:27 10° NNE
STARLINK-1213 3.8 09:52:07 15° WSW 09:54:24 38° NW 09:57:20 10° NNE
STARLINK-1263 3.8 09:52:59 14° WSW 09:55:17 37° NW 09:58:13 10° NNE
STARLINK-1307 3.8 09:52:42 14° WSW 09:55:24 44° NW 09:58:44 10° NNE
Cosmos 2151 3.1 09:51:58 10° S 09:56:12 82° E 10:00:29 10° N
STARLINK-1259 3.8 09:53:52 14° WSW 09:56:13 36° NW 09:59:09 10° NNE
STARLINK-1265 3.9 09:54:20 14° WSW 09:56:44 36° NW 09:59:39 10° NNE
STARLINK-1290 3.8 09:54:10 14° WSW 09:56:51 42° NW 10:00:05 10° NNE
PSLV R/B 3.4 09:52:42 10° N 09:56:55 80° WNW 10:01:05 10° SSW
STARLINK-1285 3.9 09:54:43 13° WSW 09:57:06 35° NW 10:00:00 10° NNE
STARLINK-1268 3.9 09:56:07 13° WSW 09:58:32 34° NW 10:01:24 10° NNE
STARLINK-1296 3.9 09:56:29 13° WSW 09:58:56 34° NW 10:01:49 10° NNE
STARLINK-1297 3.9 09:56:39 13° WSW 09:59:26 39° NW 10:02:39 10° NNE
Cosmos 2058 3.9 09:56:27 12° SW 09:59:46 30° WNW 10:03:28 10° NNW
STARLINK-1260 4.0 09:57:20 12° WSW 09:59:50 33° NW 10:02:43 10° NNE
STARLINK-1318 4.0 09:58:13 12° WSW 10:00:45 32° NW 10:03:37 10° NNE
STARLINK-1275 4.1 09:59:02 12° WSW 10:01:37 32° NW 10:04:28 10° NNE
STARLINK-62 3.4 09:59:27 13° WSW 10:02:08 48° NW 10:05:14 10° NE
STARLINK-1309 4.1 09:59:56 11° WSW 10:02:33 31° NW 10:05:22 10° NNE
STARLINK-1300 4.5 09:58:38 10° SSW 10:02:33 44° SE 10:06:29 10° ENE
STARLINK-1282 4.1 10:00:47 11° WSW 10:03:26 30° NW 10:06:15 10° NNE
STARLINK-34 3.5 10:01:16 12° WSW 10:04:02 46° NW 10:07:06 10° NNE
STARLINK-1269 4.3 10:00:01 10° NW 10:04:06 60° NE 10:08:11 10° ESE
STARLINK-1313 4.4 10:01:51 10° W 10:04:32 26° NW 10:07:13 10° NNE
STARLINK-1029 3.0 10:02:07 12° SW 10:04:58 68° NW 10:08:07 10° NE
Skynet4D Del rocket 4.3 10:00:03 10° WSW 10:05:09 37° S 10:10:03 10° ESE
STARLINK-1279 4.4 10:02:49 10° W 10:05:30 26° NW 10:08:10 10° NNE
STARLINK-1298 4.2 10:03:23 10° WSW 10:06:09 29° NW 10:08:55 10° NNE
Lacrosse 4 Rocket 2.8 10:03:57 10° WNW 10:06:56 19° WSW 10:09:51 10° SSW
STARLINK-1293 4.3 10:04:20 10° W 10:07:05 28° NW 10:09:51 10° NNE
STARLINK-1295 4.3 10:03:32 10° SSW 10:07:32 49° SE 10:11:32 10° NE
Cosmos 2360 Rocket 2.6 10:03:05 10° S 10:08:38 65° ESE 10:14:12 10° NNE
STARLINK-1255 4.3 10:06:07 10° W 10:08:50 27° NW 10:11:34 10° NNE
STARLINK-1200 4.1 10:05:00 10° NW 10:09:07 67° NE 10:13:13 10° SE
PAYLOAD A 3.8 10:04:29 10° N 10:09:10 73° WNW 10:13:54 10° SSW
Elektron 1 4.4 10:08:18 10° SW 10:11:16 57° NW 10:15:56 10° NNE
USA 234 3.6 10:05:25 10° NE 10:11:48 59° NW 10:18:11 10° WSW
Cosmos 1766 Rocket 3.7 10:07:49 10° S 10:12:12 83° E 10:16:33 10° N
STARLINK-1287 4.1 10:08:26 10° SSW 10:12:29 55° SE 10:16:32 10° NE
CZ-4B R/B 1.0 10:10:28 10° S 10:13:30 76° W 10:16:33 10° NNW
STARLINK-1192 3.9 10:09:58 10° NW 10:14:06 75° NE 10:18:13 10° SE
Cosmos 1892 4.3 10:12:26 10° WSW 10:15:13 19° WNW 10:17:59 10° NNW
Cosmos 1980 Rocket 4.2 10:14:42 10° WNW 10:16:55 12° NW 10:19:10 10° NNW
ERBS 3.3 10:14:05 10° NNW 10:17:22 52° NE 10:20:39 10° SE
MSX 4.4 10:12:40 10° N 10:17:59 40° WNW 10:23:16 10° SW
SAR-Lupe-4 4.0 10:14:58 10° S 10:18:20 40° W 10:21:45 10° NNW
H-2A R/B 3.6 10:15:30 10° SW 10:18:26 18° W 10:21:25 10° NW
Cosmos 773 Rocket 4.2 10:13:41 10° S 10:18:52 78° ESE 10:24:07 10° NNE
STARLINK-1244 3.7 10:14:55 10° NW 10:19:05 83° NE 10:23:12 10° SE
Cosmos 2084 Rocket 3.5 10:14:42 10° NW 10:19:11 79° WSW 10:23:41 10° SSE
Cosmos 2366 rocket 4.1 10:14:37 10° SSW 10:20:44 65° W 10:26:57 10° N
